Flag for Poland Weather past 2 weeks in Lublin, Poland

Now
67 °F

Overcast.


Feels Like: 67 °F
Forecast: 64 / 83 °F
Wind: 1 mph from East

Location: Lublin Radawiec

Current Time: Jul 29, 2014 at 6:37:19 AM

Latest Report: Jul 29, 2014 at 6:00 AM


Visibility: 16 mi

Pressure: 29.88 "Hg

Humidity: 84%

Dew point: 62 °F

Location of LublinLocation

Historic Weather in Lublin — Graph

°F

Lublin temperature yesterday

Maximum temperature yesterday: 86 °F (at 3:00 PM)
Minimum temperature yesterday: 64 °F (at 2:00 AM)
Average temperature yesterday: 74 °F

Past Weeks' High & Low Weather Summary

 TemperatureHumidityPressure
High86 °F (Jul 28, 3:00 PM)97% (Jul 15, 4:00 AM)30.13 "Hg (Jul 15, 4:00 AM)
Low56 °F (Jul 20, 3:00 AM)41% (Jul 26, 3:00 PM)29.83 "Hg (Jul 21, 4:00 PM)
Average70 °F72%30.00 "Hg
* Reported Jul 14 5:00 AM — Jul 29 5:00 AM, Lublin, Weather by CustomWeather, © 2014

Note: Actual official high and low records may vary slightly from our data, if they occured in-between our weather recording intervals... More about our weather records

Advertising

Lublin weather history for previous 24 hours

 ConditionsComfort  
Time TempWeatherWind HumidityBarometerVisibility
5:00 AM
Jul 29
67 °FOvercast.1 mph81%29.89 "Hg17 mi
4:00 AM68 °FOvercast.2 mph78%29.88 "Hg19 mi
3:00 AM67 °FOvercast.1 mph78%29.89 "Hg16 mi
2:00 AM67 °FPassing clouds.1 mph79%29.90 "Hg16 mi
1:00 AM67 °FPassing clouds.2 mph77%29.90 "Hg16 mi
12:00 AM69 °FPassing clouds.1 mph73%29.90 "Hg14 mi
11:00 PM
Jul 28
70 °FPassing clouds.2 mph71%29.90 "Hg13 mi
10:00 PM70 °FPassing clouds.1 mph72%29.91 "Hg12 mi
9:00 PM73 °FPassing clouds.1 mph64%29.90 "Hg16 mi
8:00 PM76 °FOvercast.2 mph60%29.89 "Hg12 mi
7:00 PM79 °FPartly sunny.3 mph51%29.88 "Hg22 mi
6:00 PM80 °FThunderstorms. Partly sunny.3 mph51%29.88 "Hg19 mi
5:00 PM82 °FThunderstorms. Partly sunny.5 mph47%29.88 "Hg19 mi
4:00 PM84 °FScattered clouds.5 mph48%29.88 "Hg16 mi
3:00 PM86 °FScattered clouds.5 mph48%29.89 "Hg16 mi
2:00 PM84 °FScattered clouds.5 mph52%29.92 "Hg19 mi
1:00 PM82 °FPartly sunny.3 mph55%29.93 "Hg16 mi
12:00 PM80 °FPartly sunny.3 mph60%29.95 "Hg16 mi
11:00 AM78 °FOvercast.3 mph58%29.95 "Hg19 mi
10:00 AM77 °FPartly sunny.3 mph62%29.96 "Hg19 mi
9:00 AM72 °FPartly sunny.3 mph75%29.97 "Hg16 mi
8:00 AM71 °FPartly sunny.5 mph77%29.97 "Hg14 mi
7:00 AM67 °FPartly sunny.2 mph86%29.98 "Hg12 mi
6:00 AM66 °FPartly sunny.2 mph88%29.98 "Hg13 mi
Weather by CustomWeather, © 2014

See weather overviewHow to use our weather pages